2024-247P

Last updated on Sun Jan 12 2025 00:02:05 GMT+0000 (Coordinated Universal Time)

1 62390U 24247P 25005.72872000 .00016217 00000+0 81076-3 0 9998 2 62390 44.9991 278.8774 0001451 324.2414 35.8368 15.17317663 2456
UTC large
Height (km)
Speed (km/s)
/
Latitude / Longitude
Inclination (degrees)
Orbital Period (minutes)
Azimuth
Elevation
Range (km)
Doppler Factor

Next 0 passes for location: London (51.5072 / 0.1276)

Sorry there are no passes over London.